AZA1593 LIRF-LIEE

Flight info

Callsign AZA1593
Flight time N/A
Altitude 29000
Route ESINO DCT ABIDU DCT DEXUL Q125 KOVAS
Aircraft MD82/M-SDFGIRWY/S

Departure

Time N/A
Airport Rome–Fiumicino Leonardo da Vinci International Airport (LIRF)

Arrival

Time 2026-04-29 08:13
Airport Cagliari Elmas Airport (LIEE)
Time Latitude Longitude Altitude Speed Heading
2026-04-29 07:34 41.39229 11.74848 16066 ft 365 kts 256°
2026-04-29 07:35 41.38587 11.71606 16519 ft 369 kts 253°
2026-04-29 07:35 41.37831 11.68326 16985 ft 372 kts 252°
2026-04-29 07:35 41.36998 11.65057 17512 ft 374 kts 250°
2026-04-29 07:35 41.36103 11.61790 18001 ft 377 kts 249°
2026-04-29 07:36 41.35163 11.58514 18445 ft 380 kts 249°
2026-04-29 07:36 41.34194 11.55229 18880 ft 382 kts 248°
2026-04-29 07:36 41.33214 11.51937 19325 ft 384 kts 248°
2026-04-29 07:36 41.32227 11.48626 19757 ft 386 kts 248°
2026-04-29 07:37 41.31237 11.45291 20194 ft 389 kts 248°
2026-04-29 07:37 41.30247 11.41936 20631 ft 391 kts 249°
2026-04-29 07:37 41.29255 11.38559 21080 ft 393 kts 249°
2026-04-29 07:37 41.28260 11.35161 21522 ft 396 kts 249°
2026-04-29 07:38 41.27261 11.31741 21950 ft 398 kts 249°
2026-04-29 07:38 41.26252 11.28299 22385 ft 401 kts 248°
2026-04-29 07:38 41.25229 11.24848 22810 ft 403 kts 248°
2026-04-29 07:38 41.24192 11.21374 23217 ft 406 kts 248°
2026-04-29 07:39 41.23148 11.17881 23634 ft 408 kts 248°
2026-04-29 07:39 41.22098 11.14368 23955 ft 411 kts 248°
2026-04-29 07:39 41.21043 11.10833 24313 ft 412 kts 249°
2026-04-29 07:39 41.19984 11.07278 24643 ft 415 kts 249°
2026-04-29 07:40 41.18922 11.03710 24992 ft 417 kts 249°
2026-04-29 07:40 41.17855 11.00120 25339 ft 419 kts 249°
2026-04-29 07:40 41.16782 10.96513 25665 ft 421 kts 249°
2026-04-29 07:40 41.15703 10.92884 25991 ft 424 kts 249°
2026-04-29 07:41 41.14620 10.89242 26327 ft 426 kts 249°
2026-04-29 07:41 41.13528 10.85575 26641 ft 428 kts 249°
2026-04-29 07:41 41.12432 10.81895 26947 ft 430 kts 249°
2026-04-29 07:41 41.11323 10.78197 27279 ft 433 kts 249°
2026-04-29 07:42 41.10169 10.74501 27593 ft 435 kts 248°
2026-04-29 07:42 41.08999 10.70796 27907 ft 437 kts 248°
2026-04-29 07:42 41.07834 10.67057 28228 ft 439 kts 249°
2026-04-29 07:42 41.06701 10.63349 28569 ft 441 kts 249°
2026-04-29 07:43 41.05566 10.59569 28833 ft 443 kts 249°
2026-04-29 07:43 41.04436 10.55770 28940 ft 443 kts 249°
2026-04-29 07:43 41.02192 10.48206 29022 ft 439 kts 249°
2026-04-29 07:44 40.99962 10.40715 29034 ft 436 kts 249°
2026-04-29 07:44 40.98603 10.37148 29034 ft 437 kts 235°
2026-04-29 07:44 40.97260 10.35094 29044 ft 439 kts 225°
2026-04-29 07:45 40.92566 10.29868 29029 ft 442 kts 220°
2026-04-29 07:45 40.87756 10.24779 29019 ft 443 kts 220°
2026-04-29 07:46 40.82991 10.19621 29022 ft 442 kts 221°
2026-04-29 07:46 40.78296 10.14416 29026 ft 440 kts 221°
2026-04-29 07:47 40.73653 10.09243 29025 ft 440 kts 221°
2026-04-29 07:47 40.68971 10.04056 29019 ft 440 kts 221°
2026-04-29 07:48 40.64276 9.98884 29026 ft 440 kts 221°
2026-04-29 07:48 40.59567 9.93738 29026 ft 440 kts 221°
2026-04-29 07:49 40.54858 9.88596 29025 ft 440 kts 221°
2026-04-29 07:49 40.50145 9.83442 29025 ft 441 kts 221°
2026-04-29 07:50 40.45430 9.78286 29022 ft 442 kts 221°
2026-04-29 07:50 40.40702 9.73135 29025 ft 441 kts 221°
2026-04-29 07:51 40.35981 9.68000 29027 ft 440 kts 221°
2026-04-29 07:51 40.31269 9.62895 29028 ft 439 kts 220°
2026-04-29 07:52 40.26542 9.57805 29031 ft 441 kts 220°
2026-04-29 07:52 40.21809 9.52699 29027 ft 441 kts 221°
2026-04-29 07:53 40.17071 9.47590 29027 ft 441 kts 220°
2026-04-29 07:53 40.12340 9.42498 29027 ft 440 kts 221°
2026-04-29 07:54 40.07693 9.37507 29023 ft 438 kts 221°
2026-04-29 07:54 40.02995 9.32463 29023 ft 437 kts 220°
2026-04-29 07:55 39.98304 9.27440 29025 ft 435 kts 220°
2026-04-29 07:55 39.93613 9.22429 29018 ft 437 kts 221°
2026-04-29 07:56 39.88924 9.17420 29006 ft 435 kts 221°
2026-04-29 07:56 39.83771 9.13320 29020 ft 442 kts 199°
2026-04-29 07:57 39.77757 9.11337 28649 ft 453 kts 195°
2026-04-29 07:57 39.74680 9.10406 28083 ft 454 kts 195°
2026-04-29 07:57 39.71618 9.09469 27427 ft 451 kts 195°
2026-04-29 07:58 39.68577 9.08515 26746 ft 448 kts 193°
2026-04-29 07:58 39.65489 9.08180 26048 ft 446 kts 176°
2026-04-29 07:58 39.62488 9.09087 25358 ft 445 kts 159°
2026-04-29 07:58 39.59719 9.10887 24503 ft 446 kts 152°
2026-04-29 07:59 39.57071 9.12982 23701 ft 445 kts 149°
2026-04-29 07:59 39.54481 9.15167 22837 ft 442 kts 148°
2026-04-29 07:59 39.51933 9.17367 22021 ft 438 kts 148°
2026-04-29 07:59 39.49410 9.19540 21276 ft 433 kts 148°
2026-04-29 08:00 39.46908 9.21666 20567 ft 428 kts 149°
2026-04-29 08:00 39.44423 9.23742 19878 ft 423 kts 150°
2026-04-29 08:00 39.41958 9.25769 19213 ft 417 kts 150°
2026-04-29 08:00 39.39514 9.27766 18561 ft 413 kts 150°
2026-04-29 08:01 39.37094 9.29735 17835 ft 409 kts 150°
2026-04-29 08:01 39.34704 9.31673 17129 ft 404 kts 150°
2026-04-29 08:01 39.32338 9.33589 16468 ft 398 kts 150°
2026-04-29 08:01 39.30008 9.35482 15822 ft 393 kts 150°
2026-04-29 08:02 39.27712 9.37353 15193 ft 388 kts 150°
2026-04-29 08:02 39.25446 9.39198 14575 ft 383 kts 150°
2026-04-29 08:02 39.23215 9.41018 13886 ft 374 kts 150°
2026-04-29 08:02 39.21037 9.42789 12846 ft 368 kts 150°
2026-04-29 08:03 39.18884 9.44526 11868 ft 361 kts 149°
2026-04-29 08:03 39.16806 9.46214 10867 ft 356 kts 149°
2026-04-29 08:03 39.14773 9.47914 10493 ft 334 kts 148°
2026-04-29 08:03 39.12911 9.49501 10353 ft 309 kts 148°
2026-04-29 08:04 39.11157 9.51007 10111 ft 290 kts 148°
2026-04-29 08:04 39.09504 9.52436 9598 ft 284 kts 148°
2026-04-29 08:04 39.07851 9.53697 9002 ft 279 kts 162°
2026-04-29 08:04 39.05972 9.53889 8413 ft 272 kts 196°
2026-04-29 08:05 39.04309 9.52756 7760 ft 272 kts 215°
2026-04-29 08:05 39.02800 9.51298 7180 ft 270 kts 216°
2026-04-29 08:05 39.01325 9.49812 6585 ft 269 kts 218°
2026-04-29 08:05 39.00204 9.47903 5934 ft 274 kts 248°
2026-04-29 08:06 39.00000 9.45471 5398 ft 281 kts 278°
2026-04-29 08:06 39.00695 9.43142 5004 ft 280 kts 297°
2026-04-29 08:06 39.01631 9.40929 4451 ft 282 kts 295°
2026-04-29 08:06 39.02456 9.38643 3950 ft 282 kts 289°
2026-04-29 08:07 39.03149 9.36297 3560 ft 279 kts 287°
2026-04-29 08:07 39.03758 9.33945 3276 ft 275 kts 285°
2026-04-29 08:07 39.04320 9.31613 3151 ft 272 kts 287°
2026-04-29 08:07 39.05273 9.29495 3093 ft 277 kts 309°
2026-04-29 08:08 39.06601 9.27680 3057 ft 279 kts 313°
2026-04-29 08:08 39.07935 9.25843 3040 ft 281 kts 311°
2026-04-29 08:08 39.09261 9.23984 3034 ft 281 kts 313°
2026-04-29 08:08 39.10612 9.22275 3034 ft 259 kts 316°
2026-04-29 08:09 39.11880 9.20784 3011 ft 235 kts 317°
2026-04-29 08:09 39.13013 9.19467 2986 ft 208 kts 317°
2026-04-29 08:09 39.14105 9.18220 2661 ft 207 kts 317°
2026-04-29 08:09 39.15128 9.17034 2461 ft 189 kts 317°
2026-04-29 08:10 39.16093 9.15911 2181 ft 186 kts 317°
2026-04-29 08:10 39.17047 9.14804 1909 ft 183 kts 319°
2026-04-29 08:10 39.17983 9.13720 1692 ft 177 kts 320°
2026-04-29 08:10 39.18882 9.12685 1414 ft 169 kts 320°
2026-04-29 08:11 39.19740 9.11690 1167 ft 164 kts 321°
2026-04-29 08:11 39.20578 9.10719 965 ft 161 kts 321°
2026-04-29 08:11 39.21408 9.09758 743 ft 161 kts 324°
2026-04-29 08:11 39.22238 9.08807 567 ft 157 kts 319°
2026-04-29 08:12 39.23051 9.07885 374 ft 155 kts 316°
2026-04-29 08:12 39.23844 9.06953 177 ft 153 kts 315°
2026-04-29 08:12 39.24620 9.06038 17 ft 148 kts 317°
2026-04-29 08:12 39.25317 9.05235 14 ft 114 kts 317°
2026-04-29 08:13 39.25710 9.04778 17 ft 29 kts 318°
2026-04-29 08:13 39.25863 9.04606 16 ft 29 kts 319°
2026-04-29 08:13 39.26012 9.04437 15 ft 25 kts 318°
2026-04-29 08:13 39.26082 9.04396 15 ft 10 kts 12°
2026-04-29 08:14 39.26120 9.04455 16 ft 9 kts 86°
2026-04-29 08:14 39.26116 9.04541 16 ft 10 kts 101°
2026-04-29 08:14 39.26081 9.04622 16 ft 11 kts 136°
2026-04-29 08:14 39.26023 9.04689 16 ft 12 kts 138°
2026-04-29 08:15 39.25961 9.04761 16 ft 12 kts 138°
2026-04-29 08:15 39.25896 9.04836 16 ft 13 kts 138°
2026-04-29 08:15 39.25829 9.04913 16 ft 13 kts 138°
2026-04-29 08:15 39.25758 9.04996 16 ft 14 kts 138°
2026-04-29 08:16 39.25684 9.05082 16 ft 15 kts 138°
2026-04-29 08:16 39.25606 9.05171 16 ft 15 kts 138°
2026-04-29 08:16 39.25526 9.05264 16 ft 15 kts 138°
2026-04-29 08:16 39.25456 9.05350 16 ft 14 kts 130°
2026-04-29 08:17 39.25409 9.05462 16 ft 15 kts 107°
2026-04-29 08:17 39.25388 9.05575 17 ft 10 kts 110°
2026-04-29 08:17 39.25347 9.05654 16 ft 11 kts 133°
2026-04-29 08:17 39.25288 9.05724 16 ft 12 kts 138°
2026-04-29 08:18 39.25235 9.05785 16 ft 9 kts 139°
2026-04-29 08:18 39.25188 9.05838 16 ft 9 kts 137°
2026-04-29 08:18 39.25154 9.05910 16 ft 10 kts 99°
2026-04-29 08:18 39.25177 9.05981 16 ft 4 kts 37°
2026-04-29 08:19 39.25194 9.05983 16 ft 3 kts 353°
2026-04-29 08:19 39.25213 9.05970 17 ft 4 kts 327°
2026-04-29 08:19 39.25230 9.05953 16 ft 0 kts 321°
2026-04-29 08:19 39.25231 9.05952 16 ft 0 kts 321°